Temp
-3 -3 -3 -4 -4 -4 -4 -5 -5 -5 -5 -5 -5 -5 -5 -5 -5 -5 -4 -5 -5 -6 -7 -7 -6 -6 -5 -5 -5 -5 -5 -4 -5 -5 -5 -5 -4 -5 -5 -5 -5 -5 -6 -6 -6
-3 -3 -3 -4 -4 -4 -4 -4 -5 -5 -6 -5 -6 -5 -5 -5 -5 -5 -6 -5 -6 -6 -7 -7 -6 -6 -5 -5 -5 -5 -5 -4 -4 -5 -5 -5 -4 -5 -6 -6 -5 -6 -6 -5 -5
-3 -3 -3 -4 -4 -4 -4 -4 -5 -5 -6 -6 -6 -6 -6 -6 -5 -5 -5 -6 -6 -7 -7 -7 -7 -6 -6 -5 -6 -5 -5 -4 -5 -5 -5 -5 -5 -5 -5 -5 -5 -5 -6 -6 -5
-3 -3 -3 -4 -4 -5 -5 -5 -5 -5 -6 -6 -6 -7 -7 -6 -6 -5 -5 -6 -6 -7 -7 -8 -7 -7 -6 -5 -6 -5 -5 -4 -5 -5 -5 -5 -5 -5 -5 -5 -5 -5 -5 -6 -5
-3 -3 -3 -4 -4 -5 -5 -5 -5 -6 -7 -7 -7 -6 -7 -7 -6 -6 -6 -6 -6 -7 -8 -8 -7 -7 -6 -5 -6 -5 -5 -5 -6 -5 -5 -5 -5 -4 -5 -4 -5 -5 -4 -6 -6
-3 -4 -4 -5 -5 -6 -6 -6 -6 -7 -7 -8 -8 -7 -7 -8 -7 -7 -6 -6 -6 -7 -8 -8 -7 -7 -6 -5 -6 -5 -5 -5 -5 -5 -5 -5 -5 -5 -5 -4 -5 -5 -5 -5 -5
-4 -4 -5 -6 -6 -7 -7 -7 -8 -8 -8 -8 -8 -8 -8 -8 -8 -8 -7 -6 -7 -7 -8 -8 -8 -7 -7 -6 -6 -5 -5 -5 -5 -5 -5 -5 -5 -5 -5 -4 -5 -5 -5 -5 -5
-4 -5 -6 -7 -8 -8 -8 -9 -9 -9 -8 -8 -9 -9 -8 -9 -8 -8 -8 -7 -7 -7 -7 -8 -8 -7 -7 -6 -6 -6 -5 -6 -6 -5 -5 -5 -6 -6 -5 -5 -4 -4 -5 -5 -5
-4 -6 -7 -8 -9 -9 -9 -9 -9 -9 -9 -9 -9 -9 -9 -9 -9 -9 -8 -8 -7 -7 -7 -8 -8 -8 -7 -7 -7 -7 -6 -6 -6 -6 -6 -5 -5 -6 -5 -5 -5 -4 -5 -5 -5
-6 -7 -8 -9 -10 -10 -10 -10 -10 -9 -9 -9 -9 -9 -9 -9 -9 -9 -9 -8 -8 -8 -8 -8 -8 -8 -8 -7 -7 -7 -7 -6 -6 -6 -6 -6 -6 -5 -5 -6 -5 -4 -5 -5 -5
-6 -7 -9 -9 -10 -11 -10 -10 -10 -10 -10 -10 -10 -10 -9 -9 -9 -9 -9 -9 -8 -8 -8 -8 -8 -8 -8 -7 -6 -7 -7 -6 -7 -6 -6 -6 -6 -6 -5 -6 -5 -5 -5 -5 -5
-7 -8 -9 -10 -11 -11 -10 -10 -10 -11 -11 -11 -10 -10 -10 -10 -10 -10 -10 -9 -9 -9 -8 -8 -8 -8 -8 -8 -7 -7 -7 -7 -6 -8 -7 -6 -6 -6 -5 -5 -6 -5 -5 -5 -5
-8 -9 -10 -11 -11 -11 -11 -11 -11 -11 -11 -11 -11 -11 -10 -10 -10 -10 -10 -10 -9 -9 -9 -9 -8 -8 -8 -8 -8 -8 -8 -8 -8 -7 -7 -6 -6 -6 -6 -5 -6 -5 -5 -5 -5
-9 -10 -11 -11 -11 -11 -11 -11 -12 -12 -12 -12 -12 -11 -11 -10 -10 -10 -10 -11 -10 -10 -9 -9 -9 -8 -8 -8 -8 -9 -8 -8 -8 -7 -7 -6 -6 -5 -5 -6 -6 -5 -5 -5 -6
-10 -10 -11 -12 -11 -11 -11 -12 -12 -12 -15 -13 -13 -12 -12 -11 -10 -11 -11 -10 -11 -10 -10 -9 -9 -9 -8 -8 -8 -8 -8 -8 -8 -7 -6 -6 -6 -6 -6 -6 -6 -6 -5 -5 -6
-10 -11 -12 -12 -12 -12 -12 -12 -13 -13 -14 -14 -14 -13 -13 -12 -12 -11 -11 -11 -10 -10 -11 -10 -10 -9 -9 -8 -8 -8 -9 -8 -8 -7 -7 -6 -6 -6 -7 -6 -7 -7 -5 -6 -5
-11 -11 -12 -12 -12 -12 -13 -13 -13 -14 -14 -14 -14 -14 -14 -14 -13 -12 -12 -11 -11 -11 -11 -10 -10 -10 -9 -9 -9 -8 -9 -9 -8 -8 -9 -7 -7 -8 -8 -8 -7 -8 -7 -7 -6
-11 -12 -12 -12 -12 -12 -13 -14 -14 -14 -14 -14 -14 -14 -15 -14 -15 -14 -13 -12 -12 -12 -13 -11 -11 -10 -9 -9 -9 -9 -9 -9 -9 -9 -9 -8 -7 -7 -8 -7 -8 -8 -7 -7 -6
-11 -12 -12 -12 -12 -12 -13 -13 -14 -14 -14 -14 -14 -14 -15 -14 -15 -15 -14 -14 -13 -12 -13 -12 -12 -11 -10 -10 -9 -9 -9 -10 -10 -10 -9 -9 -8 -8 -8 -7 -7 -6 -6 -6 -6
-12 -12 -12 -12 -12 -12 -12 -13 -14 -14 -14 -14 -15 -15 -16 -16 -15 -16 -16 -16 -15 -13 -13 -13 -13 -11 -11 -11 -10 -10 -10 -10 -10 -10 -10 -9 -8 -9 -8 -7 -7 -6 -6 -6 -6
-12 -12 -12 -13 -13 -13 -13 -13 -14 -14 -14 -14 -15 -15 -16 -16 -16 -16 -15 -15 -14 -14 -13 -13 -13 -13 -12 -10 -10 -10 -9 -10 -11 -10 -9 -9 -9 -8 -8 -8 -8 -7 -6 -7 -8
-12 -13 -13 -13 -13 -13 -13 -13 -13 -14 -14 -14 -15 -15 -16 -16 -16 -17 -16 -16 -15 -14 -14 -13 -13 -14 -12 -11 -11 -10 -10 -10 -10 -11 -10 -9 -8 -9 -8 -8 -8 -8 -8 -8 -8
-13 -13 -13 -13 -13 -13 -13 -13 -13 -14 -14 -14 -15 -15 -16 -16 -16 -16 -15 -15 -15 -15 -14 -14 -14 -14 -14 -12 -11 -11 -10 -12 -12 -11 -11 -10 -9 -9 -8 -8 -8 -8 -8 -7 -8
-13 -13 -13 -14 -14 -14 -14 -14 -14 -14 -14 -14 -15 -15 -15 -15 -15 -16 -15 -15 -15 -15 -15 -14 -14 -13 -13 -13 -13 -11 -11 -10 -12 -11 -11 -10 -10 -10 -9 -9 -9 -9 -8 -8 -8
-13 -13 -14 -14 -14 -14 -14 -14 -14 -14 -14 -14 -15 -15 -15 -16 -16 -15 -15 -15 -15 -15 -15 -14 -14 -14 -13 -13 -13 -13 -12 -11 -11 -12 -11 -11 -11 -11 -9 -9 -9 -9 -9 -8 -8
-13 -13 -14 -14 -14 -14 -14 -14 -14 -14 -14 -14 -15 -15 -15 -16 -16 -16 -16 -15 -15 -15 -15 -15 -14 -14 -14 -14 -13 -13 -13 -13 -12 -12 -12 -12 -11 -11 -10 -9 -9 -10 -9 -9 -9
-13 -14 -14 -14 -14 -14 -14 -14 -14 -14 -14 -15 -15 -15 -15 -15 -16 -16 -16 -16 -16 -15 -15 -14 -14 -15 -14 -14 -14 -14 -13 -13 -12 -12 -13 -13 -13 -11 -10 -10 -10 -10 -9 -9 -9
Height
5863 5859 5856 5854 5853 5851 5850 5849 5849 5850 5851 5852 5854 5858 5860 5862 5863 5864 5865 5869 5871 5874 5878 5881 5883 5886 5888 5889 5891 5893 5895 5894 5892 5887 5890 5895 5899 5900 5903 5906 5907 5909 5911 5911 5909
5860 5856 5853 5850 5848 5846 5844 5843 5843 5844 5845 5846 5848 5851 5854 5857 5859 5861 5865 5865 5868 5871 5875 5877 5881 5885 5887 5888 5890 5892 5893 5893 5891 5890 5890 5895 5898 5898 5903 5905 5907 5910 5911 5912 5910
5856 5852 5849 5846 5843 5841 5840 5838 5838 5837 5838 5840 5842 5844 5847 5851 5854 5857 5861 5863 5864 5868 5872 5877 5880 5883 5885 5887 5890 5891 5892 5891 5889 5888 5889 5891 5896 5898 5901 5904 5905 5908 5910 5914 5913
5852 5848 5845 5842 5839 5836 5834 5832 5831 5830 5830 5832 5836 5837 5841 5844 5849 5852 5857 5860 5862 5866 5871 5874 5877 5880 5883 5886 5889 5891 5889 5889 5887 5887 5886 5889 5895 5899 5901 5906 5907 5910 5908 5913 5915
5847 5843 5840 5837 5833 5830 5828 5826 5824 5823 5822 5824 5827 5831 5833 5838 5842 5847 5852 5856 5860 5863 5868 5871 5874 5877 5881 5885 5887 5889 5888 5887 5887 5887 5886 5891 5895 5900 5903 5905 5908 5911 5911 5914 5916
5842 5838 5834 5831 5827 5824 5821 5819 5816 5815 5815 5817 5819 5822 5826 5830 5835 5841 5846 5851 5855 5859 5864 5869 5872 5875 5880 5884 5886 5887 5887 5887 5886 5885 5887 5890 5895 5900 5903 5905 5909 5910 5913 5915 5916
5838 5832 5828 5825 5821 5817 5815 5812 5810 5809 5808 5810 5812 5815 5818 5823 5829 5834 5839 5845 5850 5855 5860 5865 5869 5873 5879 5883 5885 5886 5888 5888 5886 5884 5888 5890 5894 5898 5901 5905 5909 5912 5913 5916 5917
5832 5826 5822 5819 5815 5812 5809 5806 5805 5804 5804 5803 5805 5808 5812 5816 5822 5828 5833 5839 5845 5851 5857 5863 5867 5870 5876 5882 5884 5885 5887 5889 5887 5884 5885 5891 5894 5896 5902 5905 5908 5911 5914 5917 5918
5826 5821 5816 5813 5810 5807 5805 5802 5799 5797 5797 5797 5799 5802 5807 5811 5816 5822 5828 5833 5839 5846 5854 5860 5865 5869 5875 5880 5882 5884 5886 5888 5888 5888 5889 5890 5896 5898 5901 5904 5906 5910 5913 5917 5920
5821 5816 5811 5808 5805 5802 5799 5795 5792 5791 5790 5791 5793 5798 5801 5806 5810 5816 5823 5829 5835 5842 5849 5856 5862 5867 5873 5877 5880 5883 5885 5886 5887 5888 5890 5892 5896 5896 5898 5900 5904 5908 5913 5916 5919
5816 5811 5807 5804 5800 5797 5794 5790 5788 5786 5784 5786 5788 5791 5794 5801 5806 5811 5818 5824 5831 5837 5844 5852 5859 5864 5871 5873 5876 5881 5883 5885 5885 5884 5890 5892 5895 5896 5897 5901 5904 5908 5912 5914 5917
5811 5806 5802 5799 5796 5793 5789 5784 5781 5780 5779 5781 5783 5786 5791 5795 5801 5807 5813 5821 5827 5833 5840 5848 5855 5860 5864 5869 5874 5878 5881 5883 5884 5884 5886 5889 5893 5894 5895 5898 5902 5908 5911 5914 5917
5807 5802 5799 5796 5793 5790 5785 5780 5777 5776 5776 5777 5779 5783 5786 5792 5796 5802 5809 5816 5822 5829 5836 5844 5851 5853 5860 5866 5872 5875 5879 5880 5882 5884 5887 5889 5892 5894 5894 5894 5901 5906 5909 5913 5916
5803 5799 5795 5793 5792 5787 5783 5779 5776 5775 5775 5776 5777 5779 5783 5788 5793 5798 5802 5810 5818 5825 5832 5836 5842 5850 5856 5862 5868 5872 5874 5877 5879 5884 5886 5889 5890 5892 5894 5896 5899 5904 5909 5912 5914
5799 5796 5793 5791 5789 5785 5782 5778 5776 5776 5778 5777 5776 5778 5782 5786 5790 5795 5798 5805 5812 5818 5827 5832 5838 5844 5850 5857 5864 5865 5870 5873 5877 5882 5885 5888 5890 5891 5890 5892 5896 5902 5906 5909 5912
5797 5794 5791 5790 5787 5784 5780 5778 5777 5777 5777 5776 5775 5777 5780 5783 5787 5792 5796 5801 5806 5814 5819 5820 5831 5837 5845 5850 5856 5864 5868 5871 5875 5880 5886 5887 5890 5889 5890 5894 5895 5899 5903 5907 5910
5794 5792 5790 5788 5786 5783 5780 5779 5779 5778 5778 5778 5776 5776 5778 5782 5784 5788 5794 5799 5805 5811 5814 5819 5825 5832 5838 5846 5851 5858 5864 5870 5874 5879 5886 5885 5888 5889 5890 5893 5894 5896 5900 5904 5908
5792 5790 5789 5787 5785 5782 5780 5780 5780 5780 5779 5777 5777 5777 5778 5781 5782 5785 5789 5795 5800 5806 5811 5816 5821 5826 5833 5841 5847 5853 5860 5867 5872 5880 5885 5883 5885 5888 5889 5893 5894 5894 5895 5899 5904
5791 5788 5788 5786 5784 5782 5781 5779 5779 5778 5778 5777 5777 5777 5777 5778 5781 5783 5787 5791 5796 5802 5809 5812 5818 5821 5829 5836 5842 5848 5853 5863 5868 5876 5881 5882 5883 5885 5887 5891 5893 5893 5893 5895 5899
5789 5788 5787 5786 5783 5781 5780 5779 5777 5776 5774 5773 5773 5774 5775 5777 5778 5782 5784 5788 5791 5795 5799 5805 5812 5817 5825 5831 5837 5842 5851 5856 5863 5873 5876 5879 5880 5884 5884 5888 5889 5890 5891 5891 5893
5787 5786 5785 5784 5783 5782 5779 5778 5775 5774 5772 5769 5769 5769 5770 5773 5777 5780 5780 5781 5786 5791 5796 5802 5809 5813 5819 5824 5832 5836 5844 5849 5861 5866 5874 5879 5880 5878 5883 5885 5885 5887 5889 5889 5891
5785 5785 5784 5783 5783 5781 5779 5777 5774 5772 5770 5767 5766 5766 5768 5770 5771 5775 5775 5776 5783 5787 5794 5799 5805 5812 5815 5820 5826 5832 5840 5845 5851 5857 5864 5870 5874 5876 5879 5881 5884 5886 5887 5889 5893
5783 5783 5782 5781 5780 5779 5778 5776 5774 5771 5769 5767 5766 5765 5766 5768 5769 5769 5769 5774 5779 5784 5789 5794 5802 5809 5813 5815 5820 5827 5834 5841 5847 5856 5862 5867 5874 5872 5875 5877 5880 5881 5884 5885 5889
5781 5781 5781 5780 5779 5778 5777 5775 5773 5771 5768 5767 5766 5765 5764 5765 5765 5764 5769 5772 5776 5780 5786 5791 5797 5805 5813 5815 5819 5822 5826 5835 5842 5850 5858 5862 5864 5865 5869 5872 5876 5879 5880 5883 5886
5779 5779 5779 5779 5778 5777 5776 5774 5772 5770 5769 5767 5765 5764 5763 5763 5763 5764 5766 5771 5774 5778 5783 5788 5793 5799 5803 5806 5812 5818 5823 5829 5835 5843 5852 5858 5858 5858 5863 5867 5870 5874 5878 5880 5883
5777 5778 5777 5777 5776 5776 5775 5774 5771 5770 5769 5767 5764 5763 5762 5761 5762 5764 5766 5768 5771 5775 5780 5784 5789 5795 5799 5805 5810 5813 5818 5823 5828 5833 5840 5845 5846 5849 5856 5861 5865 5869 5873 5875 5876
5774 5775 5775 5776 5775 5774 5773 5772 5771 5769 5767 5765 5763 5761 5760 5760 5760 5762 5763 5766 5766 5771 5774 5779 5783 5791 5796 5799 5806 5810 5813 5816 5821 5827 5833 5841 5840 5844 5850 5854 5859 5864 5867 5869 5871
Wind_Speed
28 21 16 16 18 20 21 23 25 23 23 22 21 23 22 19 17 16 14 9 14 19 22 20 17 13 11 9 6 4 3 8 10 6 25 27 22 21 18 18 19 16 14 16 19
35 27 21 17 16 18 21 22 22 24 24 25 25 24 24 23 21 19 13 10 15 21 24 24 19 14 12 9 7 4 3 7 7 9 10 29 24 24 21 20 19 16 14 12 19
38 33 27 20 17 18 20 22 25 22 22 25 28 27 26 25 24 21 16 14 16 23 26 22 16 13 12 10 6 4 4 4 9 6 8 18 27 27 26 23 25 23 17 11 16
40 37 32 25 20 18 19 20 24 25 22 23 27 31 30 28 28 24 20 16 16 23 26 21 19 15 14 12 6 4 5 5 1 2 9 28 26 27 25 22 22 20 23 16 15
41 39 36 29 23 19 19 21 24 26 24 22 25 30 33 32 30 26 24 20 17 23 27 24 21 20 15 13 8 6 6 5 9 10 19 26 23 23 24 22 22 20 18 18 15
42 38 32 26 24 21 21 22 25 26 24 20 24 27 33 36 33 30 27 24 21 23 29 27 23 21 17 14 11 7 6 4 2 9 21 30 20 22 23 23 23 21 19 17 17
41 37 29 24 22 22 22 23 23 25 24 21 22 26 29 36 34 33 31 29 26 23 29 30 27 23 19 15 12 9 5 1 7 16 28 25 15 21 26 24 22 21 19 16 16
41 34 27 23 22 22 24 24 22 20 22 21 22 26 28 31 35 35 35 33 30 26 25 29 30 25 21 15 13 10 6 3 4 12 17 19 17 23 24 23 21 21 19 16 16
39 32 27 22 22 23 24 24 23 20 18 21 20 26 28 27 36 36 37 37 35 31 25 29 28 28 21 18 15 13 9 6 3 5 7 11 17 26 24 17 21 21 21 17 15
35 30 26 22 21 23 24 24 23 20 18 18 21 23 28 28 31 37 36 38 37 34 32 31 29 26 24 19 17 16 13 9 9 9 5 9 10 10 15 19 25 23 21 20 18
32 30 26 22 21 21 23 23 21 18 16 18 19 22 25 27 29 35 35 37 38 38 37 32 32 27 23 24 21 19 18 17 10 11 6 8 8 12 14 19 23 24 23 23 20
30 28 23 21 19 21 23 23 18 13 12 16 17 19 22 26 29 31 34 34 36 38 38 35 32 31 30 26 22 22 20 20 13 13 16 9 13 2 19 22 25 25 25 24 22
28 24 20 18 17 21 23 18 14 12 9 11 14 20 21 26 30 29 31 31 33 34 36 36 36 37 31 29 24 24 21 22 16 16 14 8 10 8 11 20 23 27 29 26 24
24 21 18 15 18 22 19 13 12 9 5 5 9 16 21 25 29 31 33 32 33 32 35 39 41 37 36 31 28 26 27 24 21 16 13 10 11 12 11 27 26 27 26 25 26
22 18 15 14 18 18 15 9 11 7 3 2 6 13 19 23 28 31 34 34 34 33 34 39 40 41 40 36 32 33 28 27 24 21 17 13 12 12 18 20 33 28 27 27 27
20 16 13 15 17 15 11 6 7 9 4 2 4 11 16 20 25 30 33 34 37 36 35 42 39 42 41 42 38 32 30 29 26 22 18 16 14 20 15 29 36 31 29 29 28
17 14 11 13 16 13 10 6 8 7 5 3 3 6 12 15 22 26 30 32 33 35 37 38 38 41 43 42 42 38 32 29 28 25 14 20 18 13 19 11 15 33 35 28 29
14 11 10 14 14 12 11 9 7 5 5 5 0 4 6 10 15 22 27 31 35 36 32 38 39 42 43 43 43 41 38 32 28 18 18 21 19 14 10 9 9 6 18 33 32
11 9 10 13 13 12 11 9 6 5 5 3 4 6 8 8 10 16 22 25 32 35 32 37 33 39 41 42 44 43 42 32 26 25 20 21 22 17 14 11 11 12 12 30 37
9 6 7 10 10 11 11 8 7 9 10 9 6 9 10 9 9 10 18 23 26 38 39 35 34 38 36 41 42 41 41 40 35 22 21 23 23 18 15 11 8 13 11 27 38
7 5 5 7 8 10 11 10 9 10 14 11 5 7 11 10 10 17 19 23 27 31 36 34 32 32 36 41 42 45 42 43 27 28 21 23 18 24 17 14 11 13 11 19 18
6 5 4 6 6 9 10 10 12 11 15 10 7 2 7 8 11 14 21 21 23 29 31 31 29 20 35 35 39 41 39 40 39 30 33 25 23 24 18 16 15 20 21 16 15
6 4 4 6 7 7 8 9 10 12 13 9 8 2 8 7 10 18 19 20 21 25 31 30 28 23 22 34 36 38 41 32 32 27 23 26 23 20 24 20 18 28 27 26 20
6 5 5 6 6 6 6 8 9 10 10 9 7 5 9 10 7 8 24 21 22 24 26 27 27 29 21 23 27 37 41 40 29 27 25 26 24 28 25 25 20 24 25 22 23
7 5 5 4 5 5 4 6 8 7 8 8 7 5 5 10 10 8 20 28 24 23 27 28 29 31 32 26 31 29 33 36 37 27 24 23 31 30 30 29 24 23 24 27 28
8 6 7 3 4 3 3 5 6 7 8 8 7 7 7 8 14 10 10 22 25 28 26 28 30 28 34 32 31 32 31 31 34 35 33 30 26 31 32 34 34 28 23 27 30
8 7 8 5 4 4 3 4 5 6 8 8 7 6 6 8 9 12 7 9 16 23 31 29 34 33 25 32 30 30 33 34 35 36 33 26 34 33 30 33 36 35 33 32 29
Wind_Direction
2 354 338 317 302 295 288 286 280 272 255 241 244 247 251 254 256 245 237 235 209 202 198 203 206 203 210 217 222 236 321 337 346 335 195 163 171 159 157 168 162 160 156 143 127
2 358 348 329 308 294 286 284 283 278 264 243 233 236 241 244 247 251 240 218 198 201 196 204 206 204 207 219 217 220 282 314 332 332 236 150 168 155 169 173 158 160 160 143 121
0 357 350 333 315 298 288 283 283 278 266 252 235 228 229 234 239 243 244 224 200 199 199 204 201 205 204 216 209 201 240 293 324 21 172 170 168 165 169 172 163 160 154 143 129
354 353 347 337 321 304 291 281 275 276 266 251 240 229 225 225 230 232 235 230 210 199 196 196 200 205 201 205 192 191 250 287 321 115 203 166 168 168 168 169 158 158 141 152 131
348 348 344 335 323 308 291 281 271 267 265 247 236 232 224 221 222 222 227 226 218 198 195 196 201 208 198 199 190 195 249 311 287 128 151 169 166 171 167 166 160 157 140 140 138
344 343 337 328 316 302 289 279 270 262 259 246 232 227 224 221 218 214 216 218 215 205 196 199 205 210 202 196 197 200 245 340 270 202 165 169 181 167 167 167 165 158 152 155 144
341 338 329 321 307 296 290 282 276 266 256 246 232 225 223 220 217 214 209 211 211 213 200 199 206 211 205 191 201 202 218 65 279 168 159 162 166 168 170 171 169 166 165 166 146
338 332 324 315 303 296 292 293 293 286 270 252 232 225 224 219 216 216 210 207 208 211 208 199 208 209 206 192 199 205 196 150 215 154 164 150 152 169 169 172 176 175 172 173 155
334 328 320 313 302 297 299 300 296 287 269 254 236 222 223 220 215 215 213 208 206 206 205 203 207 216 202 196 204 198 196 169 213 236 127 137 157 167 164 183 190 185 176 173 168
331 325 318 313 305 306 304 301 303 289 265 250 235 223 218 219 215 215 216 212 206 203 201 202 203 214 208 197 205 201 193 190 213 220 221 166 169 205 212 174 179 187 182 176 176
330 326 323 317 310 315 319 318 303 291 264 244 232 224 215 215 215 214 214 216 209 203 202 200 203 211 209 206 203 203 197 197 212 210 224 209 214 221 223 176 190 190 187 181 179
329 327 324 316 318 326 328 319 317 304 262 244 224 218 215 213 211 214 211 216 214 206 205 203 200 207 209 206 203 208 206 206 202 208 224 210 212 333 220 199 195 191 191 186 185
331 328 324 321 328 335 332 325 325 333 277 241 219 213 209 210 207 205 209 211 213 211 206 204 205 207 208 206 203 207 212 218 212 215 210 249 263 271 228 194 202 196 195 186 189
332 328 326 331 338 341 341 334 330 350 328 251 216 210 210 208 208 202 203 206 208 208 207 205 205 206 209 206 201 210 212 218 219 217 221 220 254 257 251 213 205 201 201 190 189
333 330 330 344 343 349 347 337 336 357 58 292 210 207 212 209 207 203 202 202 205 204 207 212 207 206 209 206 202 212 211 218 219 217 225 227 262 249 230 229 210 200 195 192 192
335 331 339 348 348 356 0 353 354 28 22 3 202 202 207 213 210 207 205 203 205 204 201 210 207 207 208 209 206 205 213 219 222 219 221 232 237 234 222 208 201 187 203 193 197
336 331 345 350 355 5 36 46 39 34 31 43 218 207 211 215 216 209 211 209 202 204 208 211 210 210 209 207 211 208 209 221 224 223 218 225 237 244 258 283 214 196 199 200 198
332 336 353 349 358 17 42 44 42 39 30 18 196 235 214 213 227 218 210 209 210 201 208 212 210 211 208 209 214 212 209 215 228 228 229 229 234 234 240 246 280 277 218 198 200
331 344 356 350 2 23 35 41 22 5 3 5 316 245 253 243 228 220 219 215 209 205 206 211 210 211 212 209 213 214 214 207 202 220 212 243 230 225 238 229 225 248 251 219 202
330 347 358 2 15 32 35 23 6 347 339 327 274 248 225 228 233 211 229 216 213 206 206 211 211 215 211 210 211 216 219 218 214 216 219 241 229 237 226 213 212 223 244 220 209
323 338 359 8 23 37 32 10 359 341 340 335 322 230 232 228 207 224 226 230 218 213 210 211 209 223 214 210 212 217 217 217 216 219 223 227 252 228 229 230 232 218 203 211 198
305 323 345 359 16 26 25 14 9 351 351 343 357 231 204 221 227 218 208 216 217 213 211 210 202 218 220 216 210 215 219 224 220 222 207 202 231 238 214 216 218 200 199 193 212
288 310 326 348 350 350 2 10 8 359 359 342 345 264 213 238 236 227 206 199 201 206 205 206 206 204 215 219 211 213 216 216 224 217 233 223 235 230 208 215 219 225 224 215 210
276 295 300 335 332 316 331 355 358 4 349 346 324 323 247 257 274 249 201 199 195 199 201 202 203 185 215 227 221 215 216 218 209 217 221 230 222 235 210 213 216 224 240 240 239
260 261 266 306 305 292 314 335 348 353 346 328 313 285 286 259 277 273 201 193 186 195 201 203 202 200 205 198 209 214 218 218 219 207 215 228 234 229 212 209 211 210 221 234 240
254 255 256 277 280 266 303 341 347 338 329 334 311 294 275 254 237 243 258 203 202 193 196 200 204 206 213 212 215 219 216 215 215 215 208 207 224 227 217 216 217 219 220 229 238
253 245 249 261 278 279 309 334 328 333 335 330 326 297 290 285 252 237 230 233 245 205 198 206 193 204 216 218 219 224 219 218 224 225 224 228 237 233 226 219 219 221 222 228 234